Huntsville, TX

11:40 PM CDT on October 19, 2017 (GMT -0500)
Huntsville Municipal

Weather History for KUTS - March, 2014

Change the Weather History Date:

Sunday, March 23, 2014

  Actual Average (KCXO) Record (KCXO)
Temperature  
Mean Temperature 62 °F -  
Max Temperature 72 °F 70 °F 86 °F (2017)
Min Temperature 51 °F 49 °F 37 °F (2002)
Degree Days  
Heating Degree Days 3    
Growing Degree Days 12 (Base 50)    
Moisture  
Dew Point 51 °F    
Average Humidity 75    
Maximum Humidity 90    
Minimum Humidity 59    
Precipitation  
Precipitation 0.00 in - - ()
Sea Level Pressure  
Sea Level Pressure 30.14 in    
Wind  
Wind Speed 8 mph (North)    
Max Wind Speed 15 mph    
Max Gust Speed 23 mph    
Visibility 9 miles    
Events      
Averages and records for this station are not official NWS values.
T = Trace of Precipitation, MM = Missing Value Source: NWS Daily Summary

Daily Weather History Graph

Daily Weather History Graph

Search for Another Location

Airport or City:

Trip Planner

Search our weather history database for the weather conditions in past years. The results will help you decide how hot, cold, wet, or windy it might be!

Date:

Astronomy

Mar. 23, 2014 Rise Set
Actual Time 7:22 AM CDT 7:35 PM CDT
Civil Twilight 6:58 AM CDT 7:59 PM CDT
Nautical Twilight 6:30 AM CDT 8:28 PM CDT
Astronomical Twilight 6:01 AM CDT 8:56 PM CDT
Moon 1:34 AM CDT (3/23) 12:23 PM CDT (3/23)
Length of Visible Light 13h 01m
Length of Day
12h 13m
Waning Gibbous, 54% of the Moon is Illuminated
Mar 23
Waning Gibbous
Mar 23
Last Quarter
Mar 30
New
Apr 7
First Quarter
Apr 15
Full

Hourly Weather History & Observations

Time (CDT) Temp. Dew Point Humidity Pressure Visibility Wind Dir Wind Speed Gust Speed Precip Events Conditions
12:10 AM 72.0 °F 66.9 °F 84% 30.00 in 10.0 mi SW 5.8 mph - N/A   Overcast
12:25 AM 72.0 °F 66.9 °F 84% 29.99 in 10.0 mi South 4.6 mph - N/A   Overcast
12:53 AM 72.0 °F 66.9 °F 84% 29.98 in 10.0 mi SW 8.1 mph - N/A   Overcast
1:27 AM 68.0 °F 64.9 °F 90% 30.01 in 7.0 mi WNW 15.0 mph 21.9 mph N/A   Overcast
1:53 AM 63.0 °F 59.0 °F 87% 30.01 in 7.0 mi Variable 6.9 mph - N/A   Overcast
2:21 AM 62.1 °F 57.0 °F 84% 30.03 in 9.0 mi WNW 6.9 mph - N/A   Overcast
2:53 AM 60.1 °F 54.0 °F 80% 30.04 in 10.0 mi NW 8.1 mph - N/A   Overcast
3:53 AM 57.9 °F 53.1 °F 84% 30.04 in 9.0 mi NW 9.2 mph - N/A   Overcast
4:53 AM 57.0 °F 51.1 °F 81% 30.06 in 10.0 mi NNW 10.4 mph - N/A   Overcast
5:53 AM 55.9 °F 51.1 °F 84% 30.09 in 10.0 mi NNW 9.2 mph - N/A   Overcast
6:53 AM 55.9 °F 51.1 °F 84% 30.11 in 10.0 mi North 9.2 mph - N/A   Overcast
7:53 AM 55.9 °F 52.0 °F 87% 30.14 in 8.0 mi Variable 5.8 mph - 0.00 in   Overcast
8:53 AM 55.9 °F 52.0 °F 87% 30.17 in 10.0 mi Variable 5.8 mph - 0.00 in   Overcast
9:53 AM 55.0 °F 52.0 °F 89% 30.17 in 6.0 mi North 11.5 mph 19.6 mph 0.00 in   Overcast
10:10 AM 55.0 °F 51.1 °F 86% 30.20 in 9.0 mi North 9.2 mph - N/A   Overcast
10:53 AM 55.0 °F 50.0 °F 83% 30.21 in 9.0 mi Variable 5.8 mph - N/A   Overcast
11:40 AM 54.0 °F 46.9 °F 77% 30.23 in 10.0 mi NE 8.1 mph - N/A   Overcast
11:53 AM 54.0 °F 46.0 °F 75% 30.23 in 8.0 mi NNE 8.1 mph - N/A   Overcast
12:53 PM 54.0 °F 46.0 °F 75% 30.22 in 10.0 mi Variable 6.9 mph 18.4 mph 0.00 in   Overcast
1:53 PM 59.0 °F 46.0 °F 62% 30.17 in 9.0 mi ENE 15.0 mph 23.0 mph 0.00 in   Mostly Cloudy
2:03 PM 59.0 °F 46.0 °F 62% 30.19 in 10.0 mi NE 10.4 mph 23.0 mph N/A   Scattered Clouds
2:50 PM 60.8 °F 46.4 °F 59% 30.19 in 10.0 mi North 12.7 mph 17.3 mph N/A   Mostly Cloudy
2:53 PM 59.0 °F 46.9 °F 64% 30.18 in 10.0 mi NE 9.2 mph 17.3 mph N/A   Mostly Cloudy
3:53 PM 61.0 °F 46.9 °F 60% 30.15 in 10.0 mi ENE 9.2 mph - N/A   Overcast
4:49 PM 59.0 °F 46.4 °F 63% 30.14 in 10.0 mi Variable 6.9 mph - N/A   Overcast
4:53 PM 59.0 °F 45.0 °F 60% 30.14 in 10.0 mi ENE 9.2 mph - N/A   Overcast
5:53 PM 57.9 °F 45.0 °F 62% 30.16 in 10.0 mi Variable 5.8 mph - N/A   Overcast
6:53 PM 57.9 °F 44.1 °F 60% 30.18 in 10.0 mi Variable 5.8 mph - N/A   Overcast
7:53 PM 55.9 °F 44.1 °F 64% 30.18 in 10.0 mi Variable 4.6 mph - N/A   Mostly Cloudy
8:53 PM 55.0 °F 43.0 °F 64% 30.20 in 10.0 mi NE 3.5 mph - N/A   Overcast
9:53 PM 54.0 °F 43.0 °F 66% 30.22 in 10.0 mi Variable 4.6 mph - N/A   Overcast
10:53 PM 52.0 °F 44.1 °F 74% 30.23 in 10.0 mi Variable 3.5 mph - N/A   Overcast
11:53 PM 51.1 °F 44.1 °F 77% 30.22 in 10.0 mi Calm Calm - N/A   Overcast